Temp
-7 -7 -7 -7 -7 -7 -7 -6 -7 -6 -6 -5 -5 -7 -5 -5 -6 -5 -6 -6 -7 -7 -6 -6 -6 -5 -5 -5 -5 -5 -5 -6 -6 -6 -5 -5 -5 -5 -5 -4 -5 -5 -5 -5 -5 -5 -5 -5 -5
-7 -7 -7 -6 -6 -6 -7 -7 -7 -6 -5 -5 -5 -8 -5 -5 -5 -6 -7 -6 -6 -6 -6 -6 -6 -6 -6 -5 -5 -5 -5 -6 -6 -6 -6 -6 -5 -5 -5 -5 -5 -5 -5 -5 -5 -5 -5 -5 -5
-7 -7 -7 -6 -6 -6 -7 -7 -7 -6 -6 -5 -5 -6 -5 -7 -7 -7 -6 -7 -6 -7 -6 -6 -6 -6 -6 -6 -6 -6 -6 -6 -6 -6 -6 -6 -6 -6 -5 -5 -5 -5 -5 -5 -5 -5 -5 -5 -5
-7 -7 -7 -7 -6 -7 -8 -7 -5 -6 -6 -6 -6 -4 -5 -5 -7 -7 -7 -7 -7 -7 -6 -7 -7 -7 -7 -7 -7 -6 -6 -6 -6 -6 -6 -6 -6 -6 -6 -6 -6 -6 -6 -6 -5 -5 -5 -5 -5
-7 -7 -7 -7 -7 -8 -8 -6 -6 -6 -6 -5 -7 -5 -6 -6 -7 -7 -7 -7 -7 -7 -7 -7 -7 -7 -7 -7 -6 -6 -6 -6 -6 -6 -6 -6 -6 -6 -6 -6 -6 -6 -6 -6 -6 -6 -6 -6 -6
-6 -7 -7 -7 -7 -8 -7 -6 -6 -7 -7 -6 -6 -6 -6 -5 -6 -6 -7 -7 -7 -7 -7 -7 -6 -6 -7 -7 -7 -6 -6 -6 -6 -6 -6 -6 -6 -6 -6 -6 -6 -6 -6 -7 -6 -6 -6 -6 -6
-7 -6 -7 -7 -8 -8 -7 -6 -7 -7 -8 -8 -7 -7 -5 -5 -4 -5 -7 -7 -7 -7 -7 -6 -6 -6 -6 -7 -7 -7 -6 -6 -6 -6 -6 -6 -6 -6 -6 -6 -6 -6 -6 -6 -7 -7 -6 -6 -6
-7 -7 -6 -7 -8 -8 -7 -6 -7 -7 -8 -6 -6 -8 -6 -5 -5 -6 -6 -7 -6 -6 -6 -6 -6 -6 -6 -6 -6 -6 -7 -7 -6 -6 -6 -6 -6 -6 -7 -7 -6 -6 -6 -6 -6 -7 -7 -7 -6
-7 -7 -7 -7 -9 -9 -7 -6 -6 -6 -6 -6 -7 -6 -5 -7 -6 -6 -6 -6 -6 -5 -6 -6 -6 -6 -6 -6 -6 -5 -5 -6 -6 -6 -6 -6 -6 -6 -7 -7 -7 -7 -7 -6 -6 -7 -7 -7 -7
-7 -7 -7 -9 -9 -9 -9 -6 -7 -6 -7 -6 -7 -6 -6 -7 -7 -7 -7 -7 -8 -7 -6 -7 -6 -6 -6 -6 -6 -6 -5 -5 -5 -5 -6 -6 -6 -6 -6 -7 -7 -7 -7 -7 -7 -7 -7 -8 -7
-7 -7 -7 -7 -8 -7 -6 -6 -7 -6 -7 -7 -6 -6 -6 -6 -7 -7 -8 -7 -9 -9 -6 -6 -6 -5 -7 -6 -7 -6 -6 -5 -5 -5 -5 -5 -5 -6 -6 -6 -7 -7 -7 -7 -7 -7 -7 -7 -8
-6 -7 -7 -6 -6 -7 -7 -7 -7 -7 -7 -7 -6 -5 -5 -7 -7 -7 -8 -8 -9 -10 -8 -6 -5 -5 -8 -5 -7 -6 -6 -5 -5 -5 -6 -6 -6 -5 -6 -7 -7 -7 -7 -7 -7 -7 -7 -7 -7
-6 -7 -6 -7 -6 -7 -7 -7 -7 -7 -7 -7 -6 -6 -7 -6 -7 -7 -7 -8 -8 -8 -8 -7 -6 -6 -7 -8 -8 -6 -5 -5 -7 -7 -8 -7 -7 -6 -6 -6 -7 -8 -7 -7 -7 -7 -7 -7 -7
-7 -7 -6 -7 -6 -6 -7 -7 -7 -7 -7 -7 -6 -7 -7 -7 -7 -7 -7 -7 -8 -8 -8 -8 -6 -6 -8 -9 -8 -8 -7 -6 -7 -6 -7 -13 -11 -10 -8 -7 -7 -8 -8 -8 -7 -7 -7 -8 -7
-7 -7 -7 -7 -7 -7 -7 -7 -7 -7 -7 -6 -7 -7 -7 -7 -7 -7 -7 -7 -8 -8 -8 -8 -7 -6 -8 -8 -8 -8 -8 -8 -8 -7 -7 -11 -10 -9 -9 -8 -8 -8 -8 -8 -7 -8 -8 -7 -8
-8 -8 -8 -8 -7 -7 -7 -7 -7 -7 -7 -6 -7 -7 -7 -7 -7 -7 -7 -7 -8 -8 -8 -8 -8 -7 -7 -8 -8 -8 -8 -8 -8 -8 -8 -9 -9 -10 -9 -9 -9 -9 -9 -8 -8 -7 -7 -8 -8
-8 -9 -8 -8 -8 -7 -7 -7 -8 -8 -7 -7 -7 -7 -7 -7 -7 -7 -7 -7 -7 -7 -7 -8 -8 -7 -8 -8 -8 -8 -8 -8 -8 -7 -6 -8 -7 -9 -9 -10 -10 -10 -10 -9 -9 -8 -8 -8 -8
-10 -11 -11 -10 -11 -9 -7 -7 -8 -8 -8 -7 -8 -8 -8 -7 -7 -7 -8 -8 -8 -8 -8 -8 -8 -8 -8 -8 -8 -8 -8 -9 -9 -8 -7 -8 -9 -10 -9 -10 -11 -10 -10 -10 -10 -9 -9 -9 -9
-10 -9 -10 -10 -12 -12 -9 -8 -8 -8 -8 -8 -8 -8 -8 -8 -8 -8 -8 -8 -8 -8 -8 -8 -8 -8 -8 -8 -8 -8 -8 -9 -9 -8 -7 -9 -9 -9 -10 -11 -11 -12 -11 -11 -10 -10 -9 -9 -8
-10 -10 -10 -10 -10 -11 -10 -9 -8 -8 -8 -9 -8 -8 -8 -8 -8 -8 -8 -8 -8 -8 -8 -8 -8 -8 -9 -8 -9 -8 -8 -8 -9 -9 -9 -10 -11 -10 -11 -11 -12 -12 -12 -11 -11 -11 -10 -9 -9
-10 -10 -10 -10 -10 -10 -10 -9 -9 -9 -9 -9 -8 -8 -8 -9 -8 -8 -8 -8 -8 -8 -8 -9 -9 -9 -9 -9 -9 -9 -9 -9 -9 -9 -9 -10 -10 -11 -11 -11 -12 -12 -12 -12 -12 -11 -11 -10 -10
-11 -11 -12 -11 -10 -10 -11 -9 -10 -10 -10 -11 -9 -9 -9 -9 -9 -9 -9 -8 -9 -9 -9 -9 -9 -9 -9 -9 -9 -9 -9 -9 -9 -10 -10 -10 -11 -11 -11 -11 -12 -12 -12 -12 -12 -12 -12 -11 -10
-12 -12 -11 -11 -11 -11 -10 -12 -9 -10 -10 -11 -11 -9 -9 -9 -9 -9 -9 -9 -9 -9 -9 -9 -9 -9 -10 -10 -10 -10 -10 -10 -10 -10 -10 -10 -11 -11 -11 -11 -12 -12 -12 -12 -12 -12 -12 -12 -11
-13 -12 -12 -11 -12 -11 -10 -12 -9 -11 -12 -12 -12 -12 -10 -10 -10 -10 -10 -9 -10 -10 -9 -10 -10 -10 -10 -10 -10 -10 -10 -10 -10 -11 -11 -11 -11 -11 -12 -12 -12 -12 -12 -12 -13 -12 -12 -13 -12
-14 -13 -13 -13 -14 -12 -12 -13 -11 -11 -12 -13 -12 -11 -11 -11 -11 -11 -10 -10 -10 -10 -10 -10 -10 -10 -10 -10 -11 -10 -10 -11 -11 -11 -11 -11 -11 -12 -12 -12 -13 -13 -12 -12 -13 -13 -13 -13 -13
-14 -13 -13 -13 -13 -13 -12 -12 -12 -12 -12 -12 -11 -12 -12 -11 -11 -11 -11 -11 -11 -11 -10 -11 -11 -11 -11 -11 -11 -11 -11 -11 -11 -11 -11 -12 -12 -12 -12 -13 -12 -13 -13 -13 -13 -13 -13 -13 -13
-14 -14 -14 -14 -14 -14 -12 -12 -12 -12 -13 -13 -13 -13 -13 -13 -12 -12 -12 -11 -11 -11 -11 -11 -11 -11 -11 -11 -11 -11 -11 -11 -11 -11 -12 -12 -11 -12 -13 -13 -13 -13 -13 -13 -13 -13 -13 -13 -13
-14 -15 -15 -15 -15 -15 -12 -14 -13 -13 -13 -13 -13 -13 -14 -14 -14 -13 -13 -12 -12 -11 -11 -11 -12 -12 -12 -11 -11 -12 -12 -12 -12 -12 -12 -12 -12 -12 -12 -13 -13 -14 -14 -13 -13 -13 -13 -13 -13
-15 -16 -15 -15 -14 -15 -14 -13 -14 -14 -14 -13 -13 -13 -14 -14 -15 -14 -13 -13 -13 -12 -12 -12 -13 -12 -12 -12 -12 -12 -12 -12 -12 -12 -12 -12 -12 -12 -13 -13 -13 -13 -14 -14 -14 -13 -13 -13 -13
-15 -14 -15 -16 -15 -14 -14 -13 -14 -14 -14 -14 -14 -13 -14 -15 -16 -14 -14 -14 -13 -13 -13 -13 -12 -13 -12 -13 -13 -13 -12 -12 -12 -12 -12 -13 -13 -13 -13 -13 -13 -13 -13 -14 -14 -14 -13 -13 -13
Height
5890 5892 5894 5896 5901 5902 5905 5905 5908 5907 5906 5905 5905 5896 5887 5876 5883 5891 5899 5900 5903 5906 5908 5911 5913 5915 5918 5920 5920 5921 5921 5922 5922 5922 5921 5921 5919 5919 5920 5919 5919 5919 5918 5917 5916 5916 5916 5915 5915
5889 5891 5894 5895 5899 5900 5904 5910 5906 5906 5904 5905 5904 5894 5874 5880 5891 5896 5899 5901 5904 5905 5908 5911 5914 5916 5917 5919 5919 5920 5920 5921 5922 5922 5922 5921 5920 5919 5919 5919 5918 5918 5917 5917 5916 5916 5915 5915 5914
5888 5890 5893 5894 5897 5900 5906 5905 5903 5902 5904 5904 5903 5891 5892 5874 5890 5882 5892 5904 5905 5907 5908 5911 5913 5914 5916 5917 5918 5918 5919 5919 5920 5921 5921 5921 5921 5920 5919 5918 5918 5918 5918 5916 5916 5915 5914 5914 5914
5885 5889 5891 5894 5897 5900 5903 5898 5899 5903 5902 5903 5900 5882 5886 5886 5892 5895 5899 5903 5905 5907 5907 5909 5911 5912 5914 5914 5916 5916 5917 5918 5918 5919 5920 5920 5919 5920 5919 5918 5917 5916 5916 5916 5915 5914 5914 5913 5913
5882 5885 5888 5891 5895 5897 5896 5897 5901 5901 5900 5901 5896 5887 5889 5890 5894 5898 5898 5901 5903 5904 5904 5906 5908 5909 5910 5911 5911 5912 5913 5914 5915 5916 5917 5917 5917 5917 5917 5917 5916 5915 5914 5914 5913 5913 5913 5912 5911
5880 5882 5885 5888 5892 5896 5890 5893 5897 5899 5897 5898 5893 5886 5895 5895 5896 5896 5898 5898 5899 5899 5900 5902 5904 5905 5905 5907 5907 5908 5908 5909 5910 5912 5913 5914 5914 5915 5915 5914 5914 5913 5913 5913 5912 5912 5911 5910 5910
5878 5880 5882 5885 5892 5896 5889 5890 5893 5894 5893 5894 5894 5886 5891 5891 5881 5887 5891 5892 5894 5894 5895 5897 5899 5901 5901 5902 5902 5903 5903 5904 5905 5906 5908 5908 5909 5910 5912 5912 5911 5910 5910 5911 5911 5911 5910 5909 5909
5875 5876 5879 5881 5887 5895 5883 5888 5888 5890 5886 5889 5890 5884 5889 5892 5867 5877 5886 5888 5888 5892 5892 5894 5896 5897 5898 5898 5898 5898 5898 5899 5900 5901 5902 5903 5904 5905 5907 5908 5908 5908 5908 5907 5908 5909 5909 5908 5907
5872 5874 5877 5881 5885 5889 5878 5883 5882 5884 5885 5888 5886 5884 5885 5886 5886 5885 5884 5884 5883 5885 5892 5890 5892 5893 5893 5894 5895 5895 5895 5895 5895 5896 5897 5898 5899 5900 5902 5904 5904 5905 5905 5905 5905 5905 5906 5906 5906
5870 5871 5874 5878 5879 5883 5876 5877 5877 5880 5882 5881 5880 5883 5883 5884 5883 5883 5882 5880 5883 5883 5882 5885 5886 5886 5885 5885 5886 5888 5889 5890 5891 5890 5890 5891 5893 5893 5896 5897 5899 5900 5900 5901 5901 5902 5902 5902 5903
5867 5868 5869 5868 5870 5871 5871 5874 5873 5876 5877 5877 5877 5877 5878 5879 5881 5882 5880 5881 5882 5878 5874 5874 5882 5878 5870 5883 5884 5881 5883 5885 5887 5888 5887 5886 5885 5888 5889 5890 5892 5894 5894 5895 5897 5897 5897 5898 5900
5863 5864 5864 5865 5867 5868 5869 5868 5871 5871 5874 5871 5871 5869 5873 5876 5875 5877 5876 5877 5879 5876 5872 5877 5874 5874 5868 5867 5883 5875 5879 5880 5881 5879 5876 5876 5879 5877 5879 5882 5884 5887 5889 5890 5890 5891 5892 5892 5895
5859 5859 5859 5861 5861 5864 5863 5864 5865 5867 5869 5867 5866 5868 5867 5868 5869 5870 5870 5870 5870 5870 5869 5866 5872 5862 5856 5863 5868 5870 5873 5875 5856 5866 5866 5869 5867 5869 5869 5871 5877 5878 5883 5883 5885 5886 5887 5886 5889
5853 5853 5854 5856 5855 5857 5858 5859 5860 5863 5863 5864 5861 5865 5863 5863 5863 5864 5865 5865 5866 5865 5864 5863 5862 5865 5866 5863 5862 5865 5865 5864 5862 5858 5828 5844 5850 5861 5865 5861 5866 5873 5875 5876 5878 5880 5882 5881 5881
5846 5848 5848 5849 5850 5851 5852 5854 5855 5856 5857 5858 5859 5859 5859 5858 5859 5858 5859 5860 5861 5862 5860 5858 5856 5858 5861 5859 5858 5858 5862 5862 5857 5856 5859 5836 5843 5851 5853 5851 5855 5861 5867 5869 5873 5873 5875 5876 5874
5841 5841 5842 5843 5843 5844 5846 5849 5849 5849 5851 5853 5854 5854 5855 5855 5855 5855 5855 5855 5855 5856 5857 5856 5852 5851 5854 5853 5853 5853 5852 5852 5853 5851 5846 5848 5842 5841 5842 5844 5849 5853 5857 5863 5863 5867 5868 5870 5869
5836 5836 5835 5837 5834 5837 5839 5842 5841 5840 5844 5847 5847 5848 5849 5850 5850 5851 5850 5850 5851 5850 5850 5851 5847 5845 5848 5846 5846 5847 5847 5844 5843 5842 5846 5845 5841 5830 5835 5837 5841 5848 5850 5852 5857 5859 5862 5864 5864
5832 5832 5831 5832 5830 5829 5832 5835 5836 5835 5836 5839 5840 5841 5841 5842 5843 5843 5844 5844 5844 5845 5844 5845 5843 5841 5841 5841 5841 5840 5841 5838 5836 5837 5841 5829 5834 5825 5830 5831 5834 5839 5842 5846 5846 5851 5854 5856 5857
5825 5824 5826 5828 5832 5825 5823 5826 5829 5829 5829 5831 5832 5834 5834 5834 5835 5834 5836 5838 5837 5837 5838 5837 5837 5837 5835 5835 5834 5834 5834 5832 5829 5831 5830 5794 5825 5822 5820 5824 5827 5831 5834 5837 5837 5841 5847 5850 5849
5819 5820 5821 5822 5822 5819 5820 5818 5821 5821 5822 5823 5824 5824 5825 5825 5826 5826 5825 5829 5829 5828 5830 5829 5829 5829 5829 5828 5827 5827 5827 5826 5824 5824 5828 5814 5817 5817 5818 5820 5823 5825 5827 5829 5830 5834 5837 5841 5842
5813 5813 5814 5814 5813 5811 5810 5811 5813 5814 5812 5812 5815 5816 5816 5815 5816 5817 5817 5820 5821 5820 5820 5820 5820 5821 5821 5820 5821 5820 5820 5819 5820 5818 5819 5818 5815 5815 5815 5816 5816 5820 5820 5822 5823 5825 5828 5831 5833
5805 5806 5805 5804 5804 5804 5804 5800 5805 5805 5804 5802 5803 5807 5806 5806 5806 5806 5807 5809 5812 5810 5812 5812 5812 5812 5812 5812 5813 5812 5812 5813 5812 5813 5811 5812 5811 5810 5812 5812 5813 5813 5814 5814 5817 5817 5819 5822 5824
5798 5797 5796 5796 5795 5794 5798 5792 5797 5798 5796 5796 5793 5794 5796 5797 5797 5796 5797 5797 5799 5802 5803 5803 5803 5804 5804 5803 5804 5806 5805 5805 5805 5805 5806 5806 5807 5806 5807 5807 5807 5807 5807 5807 5808 5812 5812 5813 5816
5789 5789 5788 5787 5787 5785 5791 5788 5790 5790 5790 5790 5790 5784 5783 5788 5787 5787 5786 5787 5790 5789 5792 5794 5794 5795 5796 5797 5796 5798 5798 5798 5798 5798 5799 5799 5798 5800 5800 5799 5801 5799 5800 5800 5800 5803 5805 5805 5807
5782 5780 5778 5778 5781 5777 5784 5783 5780 5783 5776 5778 5779 5777 5779 5781 5780 5778 5776 5778 5780 5780 5779 5785 5785 5785 5786 5788 5788 5788 5790 5791 5789 5790 5792 5792 5793 5791 5793 5794 5794 5791 5792 5793 5793 5795 5798 5799 5800
5777 5776 5772 5769 5769 5771 5772 5769 5775 5776 5773 5770 5773 5773 5767 5766 5768 5768 5766 5767 5768 5769 5772 5772 5775 5775 5777 5778 5779 5779 5780 5782 5782 5782 5783 5783 5784 5783 5783 5786 5787 5788 5786 5785 5785 5787 5789 5791 5794
5768 5767 5768 5762 5758 5758 5757 5759 5765 5771 5765 5765 5763 5759 5758 5755 5753 5756 5756 5756 5757 5758 5760 5762 5764 5766 5767 5768 5769 5770 5771 5772 5773 5774 5775 5776 5776 5777 5776 5777 5778 5779 5779 5779 5778 5778 5780 5782 5785
5755 5757 5755 5754 5749 5745 5742 5746 5750 5758 5752 5745 5746 5745 5747 5747 5744 5744 5745 5744 5745 5746 5748 5751 5753 5755 5756 5758 5759 5760 5761 5761 5763 5765 5767 5767 5766 5768 5768 5769 5770 5771 5771 5772 5772 5771 5771 5773 5776
5744 5743 5746 5739 5737 5730 5729 5732 5745 5749 5740 5741 5734 5734 5734 5736 5735 5733 5735 5735 5736 5736 5735 5737 5739 5742 5744 5746 5748 5748 5750 5751 5752 5753 5756 5757 5757 5759 5760 5759 5759 5760 5761 5762 5764 5764 5765 5764 5767
5728 5728 5728 5722 5720 5718 5718 5715 5736 5736 5726 5722 5718 5725 5726 5727 5726 5725 5722 5722 5723 5722 5724 5723 5727 5731 5732 5733 5735 5736 5737 5739 5741 5742 5744 5745 5747 5747 5748 5748 5749 5749 5750 5752 5754 5755 5756 5757 5757
Wind_Speed
14 14 12 12 11 9 11 7 17 12 14 12 14 24 23 28 11 3 11 10 8 15 20 12 8 12 10 11 12 11 8 6 6 6 8 8 9 9 10 9 7 5 5 4 2 2 2 3 3
15 14 14 13 11 10 15 9 24 18 12 9 10 21 14 7 11 9 7 8 13 12 10 12 12 12 14 15 11 13 10 8 7 5 5 6 7 8 9 10 10 9 8 7 5 5 5 4 5
17 15 15 15 12 11 1 17 27 21 6 12 14 30 28 19 4 6 10 3 9 12 13 15 17 14 12 11 10 10 11 10 10 9 8 8 8 9 9 10 10 11 11 10 9 8 7 6 7
22 19 16 14 13 11 8 33 22 16 17 16 20 26 26 20 8 13 7 6 9 10 11 13 12 11 13 14 14 14 13 13 13 13 12 11 9 10 11 11 12 12 14 13 12 11 9 8 9
21 24 22 19 16 8 29 27 13 17 20 18 25 32 24 18 15 16 14 13 13 17 16 17 18 18 17 18 18 19 18 17 18 18 17 15 13 12 13 13 15 14 14 15 14 13 11 10 10
17 20 21 18 16 10 33 26 22 22 25 24 28 35 23 21 20 20 16 17 16 18 19 20 21 22 21 21 21 21 22 21 21 21 21 20 18 16 16 16 16 17 16 15 17 16 14 13 12
17 18 18 16 7 24 34 23 24 24 23 19 22 30 22 20 29 22 19 21 19 20 21 21 20 21 23 24 24 23 23 23 24 24 24 24 23 22 20 19 19 19 18 18 17 20 19 16 15
19 21 21 20 14 17 35 17 24 23 26 27 17 29 23 19 27 16 23 23 24 22 25 25 25 25 26 27 29 28 26 25 25 25 26 27 27 27 24 22 22 21 21 20 20 20 21 21 18
18 20 18 17 12 16 32 17 27 27 27 22 26 30 25 15 23 26 27 27 29 29 26 29 30 29 30 31 31 31 31 30 29 28 28 29 29 29 28 27 26 25 25 24 23 22 23 23 22
17 18 16 9 17 24 29 17 27 25 26 28 31 29 31 26 27 26 27 27 24 19 24 28 19 29 34 31 33 34 33 32 32 33 32 31 31 31 30 29 28 27 28 27 26 26 25 24 24
19 19 20 26 29 30 27 19 26 21 24 28 29 31 31 31 27 26 28 27 23 29 38 37 31 24 34 27 35 39 39 37 36 35 36 38 37 32 32 31 29 28 28 28 28 28 27 26 25
19 21 25 26 25 26 26 28 26 26 25 31 30 32 25 25 27 28 29 30 29 34 38 33 28 36 33 34 21 39 39 40 42 42 43 44 42 40 34 30 32 30 30 28 28 28 28 28 26
23 24 27 26 28 25 29 29 27 28 25 31 32 27 28 28 28 30 31 32 34 35 37 38 32 37 32 38 32 39 32 31 23 45 47 45 47 46 40 36 31 33 31 31 27 29 26 29 27
27 29 30 26 29 29 29 29 30 27 27 28 30 24 29 29 28 28 29 30 30 32 34 34 34 28 26 35 34 31 30 30 39 41 38 32 39 38 39 40 38 34 33 34 31 29 28 29 29
28 29 30 30 30 30 32 31 30 30 29 28 25 26 26 26 26 27 28 28 29 30 30 32 33 27 22 28 27 28 24 28 31 34 43 39 22 38 42 41 40 39 37 36 33 32 31 29 30
25 26 27 28 30 31 32 28 29 33 30 29 27 27 27 27 26 28 28 29 30 29 28 28 31 29 21 23 24 25 26 27 27 33 41 37 46 38 39 42 43 39 39 37 38 33 32 31 33
23 22 24 25 28 31 30 27 27 34 33 29 31 29 29 28 28 27 29 29 30 29 29 26 29 29 21 23 22 23 24 28 29 32 32 33 31 31 32 37 42 44 41 34 37 36 33 32 33
4 16 20 19 26 32 32 30 27 31 34 34 30 31 32 32 31 31 29 30 31 30 30 27 28 28 25 22 22 22 22 25 27 28 28 35 33 36 33 35 37 42 45 38 40 36 32 34 32
24 28 27 18 20 30 34 33 32 32 35 34 35 33 32 34 33 34 33 30 33 33 30 30 29 27 26 24 23 23 22 23 26 25 23 12 29 32 29 31 33 33 38 44 46 33 40 33 31
22 23 23 25 29 34 34 38 34 36 35 34 35 36 36 37 35 36 38 33 34 36 32 32 31 28 26 25 24 23 22 23 23 25 24 33 30 27 26 29 31 32 33 35 42 45 42 38 32
25 26 26 29 31 33 35 38 35 34 36 37 38 36 37 38 38 38 39 37 36 36 33 33 33 30 27 26 24 24 23 24 21 23 23 26 27 27 28 27 30 30 32 33 33 41 44 42 39
30 26 27 31 33 35 31 42 35 31 32 34 37 32 34 37 38 38 40 40 36 36 34 34 33 31 28 29 25 24 24 22 22 20 23 21 22 26 26 28 29 31 30 32 34 33 36 42 42
28 30 33 34 36 37 36 38 39 34 34 31 37 39 37 35 37 39 40 40 39 37 35 34 34 32 30 31 28 23 24 23 22 21 20 22 23 25 26 26 28 30 30 30 29 30 33 34 38
35 34 38 37 37 39 34 30 35 24 26 28 28 40 45 36 39 39 41 41 37 39 38 36 34 34 33 30 30 26 25 24 22 22 19 22 24 24 26 27 26 29 31 30 30 26 25 28 32
32 35 35 35 25 34 26 29 27 17 25 36 35 41 42 40 41 39 42 42 38 40 41 36 36 36 35 32 31 30 27 25 26 25 22 24 23 27 27 25 24 29 30 32 33 31 28 27 27
27 29 32 29 33 34 32 36 30 28 33 31 35 37 45 47 43 41 42 42 42 43 42 41 38 38 36 35 33 33 30 28 28 28 27 27 26 30 30 26 26 26 29 31 34 35 35 32 27
35 32 32 39 39 40 47 46 40 36 36 42 41 43 43 43 41 41 43 46 45 44 44 43 40 38 37 36 35 34 32 32 31 31 31 30 31 32 33 31 31 30 30 31 34 35 36 36 35
41 35 36 37 45 46 50 43 41 28 36 42 42 29 34 39 42 44 41 47 48 47 47 44 41 39 38 39 38 36 35 36 35 35 33 33 35 34 36 36 36 35 34 34 33 33 35 36 37
38 35 33 43 44 43 48 48 32 25 42 42 44 38 41 33 39 41 39 37 44 48 49 49 45 44 42 41 38 38 39 39 39 39 37 36 37 36 37 40 40 40 39 38 36 34 34 36 36
46 47 44 52 53 52 51 60 34 33 37 39 32 48 55 26 33 38 45 49 50 52 54 54 51 47 46 44 42 43 43 43 43 44 41 39 39 39 39 41 42 42 43 43 41 38 37 37 37
Wind_Direction
197 196 196 199 189 179 175 95 244 235 238 224 232 244 248 197 202 229 147 176 178 184 202 232 239 228 245 247 251 247 237 249 254 236 218 225 225 239 245 243 241 237 238 242 269 306 326 330 321
196 200 202 202 192 167 40 332 242 261 230 220 233 247 282 29 238 245 129 165 189 184 208 233 246 256 262 259 249 256 240 239 221 233 234 254 255 248 248 249 248 251 253 256 264 280 302 314 316
204 204 206 205 199 145 358 197 241 240 257 245 253 262 261 37 294 318 66 304 226 233 262 268 263 257 259 264 261 246 241 232 234 247 253 258 273 278 278 268 267 266 267 265 259 265 276 292 303
214 211 214 220 216 170 256 222 240 268 247 249 261 265 269 293 300 291 290 266 267 261 272 280 260 262 273 272 270 269 268 255 254 253 255 259 264 279 289 284 287 283 276 262 264 262 267 277 288
214 216 221 220 220 193 239 236 232 261 263 247 246 259 262 269 271 271 273 260 250 256 259 258 262 264 262 262 265 266 269 269 264 266 264 260 259 263 272 283 286 289 291 269 262 265 266 268 273
217 218 222 220 219 233 248 247 252 253 253 258 258 261 255 273 270 265 263 263 261 261 261 257 255 262 262 263 264 264 264 265 267 266 267 268 267 264 267 276 283 286 291 287 270 269 268 267 269
219 221 216 209 179 257 264 238 245 245 243 252 246 263 267 263 260 253 261 263 260 260 258 254 252 252 256 261 262 263 265 264 261 262 264 264 266 267 268 270 272 278 287 291 287 276 275 270 268
225 226 221 209 174 259 263 226 237 233 237 249 262 253 255 250 265 266 260 259 261 258 266 267 262 261 258 256 259 263 264 266 268 267 266 267 268 268 268 268 269 272 277 283 287 283 276 276 271
227 230 229 223 243 243 256 232 237 235 243 252 243 249 261 260 256 254 255 260 263 265 262 269 269 271 270 270 268 267 268 273 276 275 275 274 272 273 274 273 271 272 274 277 281 285 280 276 277
239 235 229 197 225 239 257 222 244 230 238 242 251 249 254 254 256 263 269 278 290 287 271 252 269 279 269 271 276 276 273 271 273 276 276 272 272 273 274 274 272 272 272 274 277 279 282 281 277
242 242 236 234 225 228 250 245 251 250 245 251 249 253 253 257 258 261 266 267 270 287 272 277 278 264 281 272 281 279 279 279 280 279 278 277 275 270 270 271 272 271 273 274 275 276 277 280 279
256 249 246 254 258 258 259 258 247 253 249 253 254 260 267 263 261 253 254 257 253 254 267 280 265 282 264 267 284 282 279 285 285 282 280 276 274 272 267 264 267 268 267 268 271 272 274 276 278
256 255 255 253 256 251 253 253 254 252 247 256 262 269 267 265 259 258 257 258 262 266 269 277 279 267 295 289 279 280 284 276 277 274 275 278 275 270 268 266 257 263 263 263 262 268 271 272 271
259 255 258 257 257 254 250 252 253 255 257 251 262 260 261 266 266 262 261 262 262 266 271 276 283 284 279 275 280 280 267 281 275 274 242 237 252 265 270 270 269 259 256 259 261 258 261 265 270
262 260 258 259 257 254 252 253 258 256 254 256 260 262 262 260 261 263 262 263 263 262 267 274 279 282 279 278 281 283 274 268 272 269 243 299 294 265 264 263 262 264 262 259 255 256 260 261 263
263 262 261 261 257 255 252 255 258 257 257 259 260 260 260 262 263 264 264 264 264 263 260 264 275 282 287 280 281 282 282 280 270 269 275 278 275 263 266 265 263 258 262 261 261 254 253 258 263
269 269 269 260 269 255 252 254 258 261 258 262 265 264 263 264 265 265 266 267 266 265 265 265 273 280 284 280 284 279 278 278 277 276 272 261 278 257 272 264 261 262 262 259 258 255 254 252 259
271 298 295 292 274 269 258 256 258 266 269 263 265 266 266 266 268 268 267 268 267 263 263 265 268 275 282 281 284 283 281 276 277 277 287 280 264 291 270 263 262 258 258 262 260 252 250 248 263
238 249 252 228 227 268 277 268 261 264 266 270 270 268 267 267 268 269 270 268 267 265 260 264 267 271 278 281 282 281 283 281 281 285 293 241 288 293 286 275 269 264 258 253 256 255 250 253 274
259 257 255 254 252 255 266 271 271 270 270 269 268 270 269 268 267 267 269 268 268 270 266 265 269 270 273 276 278 280 282 280 280 281 278 292 289 297 289 280 273 271 268 266 260 259 254 251 250
265 266 265 263 260 261 268 270 272 270 268 268 267 266 267 267 266 265 266 267 264 267 269 266 268 271 271 272 273 277 280 283 282 279 281 285 290 282 281 281 276 274 274 269 269 258 257 255 250
272 272 269 266 267 269 269 275 273 273 277 276 273 266 265 264 266 264 265 264 261 265 265 265 266 268 268 269 268 275 280 282 284 280 285 288 280 282 279 278 275 276 273 272 272 269 259 260 256
271 270 271 274 276 274 273 277 276 278 277 276 283 273 262 264 264 266 265 267 265 260 262 261 263 266 264 267 267 267 275 279 280 283 288 283 282 283 280 278 277 273 273 273 272 269 270 258 257
278 279 278 276 279 277 285 293 284 298 289 263 258 269 274 270 265 263 265 265 265 263 261 259 261 261 260 262 266 264 268 274 277 282 291 288 292 287 285 286 289 275 269 271 276 275 272 268 256
297 300 288 281 278 284 294 282 281 263 269 240 242 262 283 278 270 268 266 265 261 259 261 261 260 259 259 259 261 263 263 271 278 281 282 281 282 283 280 283 283 282 280 272 270 271 272 272 269
263 265 264 270 274 279 253 248 267 283 271 267 269 275 279 283 275 269 265 264 259 256 257 258 258 258 259 257 258 261 263 267 271 277 280 283 282 281 285 282 280 279 277 282 280 272 267 266 268
255 255 271 273 268 266 273 266 258 255 276 277 280 276 270 270 272 271 267 265 261 257 255 257 258 257 256 257 260 260 261 264 267 270 275 277 279 279 281 281 278 279 281 281 284 278 269 266 266
253 262 270 266 272 274 279 270 264 246 257 277 278 279 251 253 265 268 264 266 267 263 260 260 259 258 257 258 259 260 262 265 267 267 270 273 277 280 282 279 276 274 275 278 278 281 273 269 264
267 261 257 271 264 266 263 272 280 267 258 259 264 266 253 235 253 264 264 266 269 268 267 263 261 261 260 261 263 262 262 263 266 268 268 269 272 276 275 277 277 274 269 270 272 274 273 270 266
274 275 262 245 255 259 259 264 260 243 259 266 257 257 271 263 248 249 268 264 264 266 263 264 261 261 264 262 259 260 261 262 263 266 267 267 271 274 274 274 275 272 269 266 264 266 269 268 265